User: anonymous   Login
Location: Ciserano
(45.5833°N, 9.6000°E)
Time: 21:57:54
(UTC+00:00)
Language:

FENGYUN 1C DEB - Orbit

View from above orbital plane
View from above orbital plane
View from above satellite
View from above satellite

Ground track
Ground track

The orbit data is extracted from the following two-line orbital elements,

1 30951U 99025BAR 21175.37130793  .00000894  00000-0  18740-3 0  9996
2 30951  99.8862  23.0154 0130926 120.4329  52.7502 14.57805748756591
Epoch (UTC): 24 June 2021 08:54:41
Eccentricity: 0.0130926
inclination: 99.8862°
perigee height: 607 km
apogee height: 793 km
right ascension of ascending node: 23.0154°
argument of perigee: 120.4329°
revolutions per day: 14.57805748
mean anomaly at epoch: 52.7502°
orbit number at epoch: 75659

The dashed part of the orbit path shows where the satellite is in the earth's shadow,  

DLR